FENGYUN 1C DEB

Satellite information

Favourite Embed

Satellite Type and Status

DEBRISIN ORBIT

Key statistics

Satellite FENGYUN 1C DEB at a glance.

Uptime

9617

Days in orbit

Revolutions

≈ 14.1

Per day

Orbit

SSO

Sun Synchronous Orbit

Inclination

98.8

Latest

Satellite identification and parameters

Extended collection of information and parameters for FENGYUN 1C DEB.

Object identification

Identified? True

Debris? True

Object name: FENGYUN 1C DEB

International designator: 1999-025AYD

Object number (NORAD): 30891

Object ID (CCSDS): 30891

Country: PEOPLES REPUBLIC OF CHINA (PRC)

Current information (Y/N): Y

RCS size: SMALL

Orbital parameters

Period: 102.45 minutes

Inclination: 98.7994 deg

SMA: 7252.732 km

Apoapsis: 915.866 km

Periapsis: 833.327 km

RAAN: 300.1673 deg

Eccentricy: 0.0056902

Argument of periapsis: 101.3135 deg

Mean anomaly: 29.4474 deg

Mean motion: 14.05563051 rev/day

Mean motion (dot): 0.00001549 rev/day2

B* drag term: 0.00096431911 1/REarth

Two-line elements (TLE)

Creation date: Sept. 7, 2025, 3:09 a.m.

Reference frame: TEME

Reference center: EARTH

Epoch: Sept. 6, 2025, 3:52 p.m. UTC

TLE line 0: 0 FENGYUN 1C DEB

TLE line 1: 1 30891U 99025AYD 25249.66149435 .00001549 00000-0 96432-3 0 9992

TLE line 2: 2 30891 98.7994 300.1673 0056902 101.3135 29.4474 14.05563051946183

Live tracking on map

Real-time ground track for satellite FENGYUN 1C DEB.

In-orbit conjunctions

A list of the most updated potential collisions computed for object FENGYUN 1C DEB.

Target Orbit TCA Probability of collision Miss distance Type
SL-8 R/B LEO 2025-04-29 04:41:53 0.0002257658 732.0 (m) ROCKET BODY
CZ-6A DEB SSO 2024-11-12 08:20:41 0.0002453362 858.0 (m) DEBRIS

Associated space launch

Chinese polar orbiting meteorological satellite

FENGYUN 1C DEB was lifted into orbit during the mission ‘Long March 4B | Feng Yun 1C’, on board a Long March 4B space rocket.

The launch took place on May 10, 1999, 1:33 a.m. from Launch Complex 7.

For more information about the launch, click the button.

Launch to space Long March 4B | Feng Yun 1C
Long March 4B | Feng Yun 1C

Agency: N/A

Status: Launch Successful

Launch date: May 10, 1999, 1:33 a.m. UTC

Rocket: Long March 4B

Launch pad: Launch Complex 7

Location: Taiyuan Satellite Launch Center, People's Republic of China

...

Latest news about this satellite

There are no fresh news available about this satellite. Check back as we update our databases every day.


Newsletter sign-up

Weekly statistics, charts and insights to help you stay on top of the space industry.